Date String (YYYY-MM-DD hh:mm:ss) UTC,Instrument flags,absolute air pressure of the measurement (hPa),sample flow rate (lpm),inlet stack bypass flow (lpm),air temperature of the measurement (°C),ambient temperature measured by the external sensor (°C),aerosol sample conditioner tube jacket temperature (°C),OPC LED temperature (°C),internal box temperature (°C),relative humidity of the measurement (%),span deviation,mass concentration of particles derived from Lorenz-Mie calculation of OPC scattering (μg/m³),mass concentration of particles derived from Lorenz-Mie calculation of OPC scattering (μg/m³),mass concentration of particles derived from Lorenz-Mie calculation of OPC scattering (μg/m³)
DateTimeUTC,F1_M11,P_M11,Q1_M11,Q2_M11,T1_M11,T2_M11,T3_M11,T4_M11,T5_M11,U1_M11,ZSPAN_M11,X2_M11,X0_M11,X1_M11
2024-03-29 23:00:00,SystemResetWarning,0823.9,5.00,000.00,021.0,020.4,000.0,029.5,022.8,27.2,0000.0,0004.75,0008.91,0004.29
2024-03-29 23:01:00,SystemResetWarning,0824.0,5.00,000.00,021.0,020.4,000.0,029.5,022.8,27.6,0000.0,0004.77,0008.51,0004.30
2024-03-29 23:02:00,SystemResetWarning,0824.0,5.00,000.00,021.0,020.4,000.0,029.5,022.8,28.1,0000.0,0004.78,0008.51,0004.30
2024-03-29 23:03:00,SystemResetWarning,0824.0,5.00,000.00,021.0,020.4,000.0,029.5,022.8,28.4,0000.0,0004.78,0008.53,0004.31
2024-03-29 23:04:00,SystemResetWarning,0824.0,5.00,000.00,021.0,020.4,000.0,029.5,022.8,28.5,0000.0,0004.78,0008.43,0004.31
2024-03-29 23:05:00,SystemResetWarning,0824.0,5.00,000.00,021.0,020.4,000.0,029.5,022.8,28.1,0000.0,0004.81,0008.23,0004.32
2024-03-29 23:06:00,SystemResetWarning,0824.0,5.00,000.00,021.0,020.4,000.0,029.5,022.8,28.5,0000.0,0004.80,0008.50,0004.32
2024-03-29 23:07:00,SystemResetWarning,0824.0,5.00,000.00,021.0,020.4,000.0,029.5,022.8,28.1,0000.0,0004.78,0008.37,0004.31
2024-03-29 23:08:00,SystemResetWarning,0824.0,5.00,000.00,021.0,020.4,000.0,029.5,022.8,28.6,0000.0,0004.73,0008.16,0004.30
2024-03-29 23:09:00,SystemResetWarning,0824.0,5.00,000.00,021.0,020.4,000.0,029.5,022.8,28.6,0000.0,0004.70,0008.05,0004.28
2024-03-29 23:10:00,SystemResetWarning,0823.9,5.00,000.00,021.0,020.4,000.0,029.5,022.8,28.7,0000.0,0004.67,0008.00,0004.27
2024-03-29 23:11:00,SystemResetWarning,0823.9,5.01,000.00,021.0,020.4,000.0,029.5,022.8,28.7,0000.0,0004.63,0007.94,0004.25
2024-03-29 23:12:00,SystemResetWarning,0823.9,5.00,000.00,021.0,020.4,000.0,029.5,022.8,28.8,0000.0,0004.60,0008.10,0004.22
2024-03-29 23:13:00,SystemResetWarning,0823.9,5.00,000.00,021.0,020.4,000.0,029.5,022.8,28.7,0000.0,0004.52,0008.22,0004.16
2024-03-29 23:14:00,SystemResetWarning,0823.9,4.99,000.00,021.0,020.3,000.0,029.5,022.8,28.8,0000.0,0004.41,0008.05,0004.07
2024-03-29 23:15:00,SystemResetWarning,0823.9,5.00,000.00,021.0,020.3,000.0,029.5,022.8,28.5,0000.0,0004.27,0007.83,0003.96
2024-03-29 23:16:00,SystemResetWarning,0823.9,5.00,000.00,021.0,020.3,000.0,029.5,022.8,28.5,0000.0,0004.09,0007.55,0003.83
2024-03-29 23:17:00,SystemResetWarning,0823.9,5.01,000.00,021.0,020.3,000.0,029.5,022.8,28.2,0000.0,0003.97,0006.56,0003.73
2024-03-29 23:18:00,SystemResetWarning,0824.0,5.00,000.00,021.0,020.3,000.0,029.5,022.8,27.9,0000.0,0003.83,0006.14,0003.60
2024-03-29 23:19:00,SystemResetWarning,0824.0,4.99,000.00,021.0,020.3,000.0,029.5,022.8,27.9,0000.0,0003.67,0005.80,0003.47
2024-03-29 23:20:00,SystemResetWarning,0823.9,5.01,000.00,021.0,020.3,000.0,029.5,022.8,28.0,0000.0,0003.53,0005.50,0003.34
2024-03-29 23:21:00,SystemResetWarning,0824.0,5.01,000.00,021.0,020.3,000.0,029.5,022.8,28.2,0000.0,0003.40,0005.30,0003.21
2024-03-29 23:22:00,SystemResetWarning,0823.9,4.99,000.00,021.0,020.3,000.0,029.5,022.8,28.4,0000.0,0003.27,0005.10,0003.05
2024-03-29 23:23:00,SystemResetWarning,0824.0,4.99,000.00,021.0,020.3,000.0,029.5,022.8,28.4,0000.0,0003.11,0004.54,0002.78
2024-03-29 23:24:00,SystemResetWarning,0824.0,5.01,000.00,021.0,020.3,000.0,029.5,022.8,28.1,0000.0,0002.90,0003.75,0002.55
2024-03-29 23:25:00,SystemResetWarning,0824.0,5.01,000.00,021.0,020.3,000.0,029.5,022.8,28.0,0000.0,0002.70,0003.50,0002.37
2024-03-29 23:26:00,SystemResetWarning,0824.0,4.99,000.00,021.0,020.3,000.0,029.5,022.8,27.9,0000.0,0002.57,0003.35,0002.24
2024-03-29 23:27:00,SystemResetWarning,0824.0,4.99,000.00,021.0,020.3,000.0,029.5,022.8,28.0,0000.0,0002.45,0003.20,0002.12
2024-03-29 23:28:00,SystemResetWarning,0824.1,5.01,000.00,021.0,020.3,000.0,029.5,022.8,27.9,0000.0,0002.35,0003.17,0001.99
2024-03-29 23:29:00,SystemResetWarning,0824.2,5.01,000.00,021.0,020.3,000.0,029.5,022.8,27.7,0000.0,0002.24,0003.05,0001.88
2024-03-29 23:30:00,SystemResetWarning,0824.2,4.98,000.00,021.0,020.3,000.0,029.5,022.8,27.8,0000.0,0002.13,0002.92,0001.78
2024-03-29 23:31:00,SystemResetWarning,0824.3,5.02,000.00,021.0,020.3,000.0,029.5,022.8,27.8,0000.0,0002.05,0002.83,0001.70
2024-03-29 23:32:00,SystemResetWarning,0824.3,5.01,000.00,021.0,020.3,000.0,029.5,022.8,27.9,0000.0,0001.95,0002.72,0001.62
2024-03-29 23:33:00,SystemResetWarning,0824.3,4.99,000.00,021.0,020.3,000.0,029.5,022.8,28.4,0000.0,0001.79,0002.41,0001.53
2024-03-29 23:34:00,SystemResetWarning,0824.3,5.00,000.00,021.0,020.3,000.0,029.5,022.8,28.3,0000.0,0001.72,0002.34,0001.46
2024-03-29 23:35:00,SystemResetWarning,0824.3,5.00,000.00,021.0,020.3,000.0,029.5,022.8,28.2,0000.0,0001.63,0002.57,0001.40
2024-03-29 23:36:00,SystemResetWarning,0824.3,5.01,000.00,021.0,020.3,000.0,029.5,022.8,27.9,0000.0,0001.62,0002.78,0001.37
2024-03-29 23:37:00,SystemResetWarning,0824.3,5.00,000.00,021.0,020.3,000.0,029.5,022.8,27.7,0000.0,0001.61,0002.77,0001.36
2024-03-29 23:38:00,SystemResetWarning,0824.3,4.99,000.00,021.0,020.3,000.0,029.5,022.8,27.8,0000.0,0001.59,0002.76,0001.34
2024-03-29 23:39:00,SystemResetWarning,0824.3,4.99,000.00,021.0,020.3,000.0,029.5,022.8,27.7,0000.0,0001.56,0002.66,0001.32
2024-03-29 23:40:00,SystemResetWarning,0824.3,4.99,000.00,021.0,020.3,000.0,029.5,022.8,27.8,0000.0,0001.52,0003.16,0001.29
2024-03-29 23:41:00,SystemResetWarning,0824.3,5.00,000.00,021.0,020.3,000.0,029.5,022.8,28.0,0000.0,0001.52,0003.95,0001.27
2024-03-29 23:42:00,SystemResetWarning,0824.3,5.01,000.00,021.0,020.3,000.0,029.5,022.8,27.8,0000.0,0001.51,0004.08,0001.24
2024-03-29 23:43:00,SystemResetWarning,0824.3,5.01,000.00,021.0,020.3,000.0,029.5,022.8,27.9,0000.0,0001.49,0004.03,0001.22
2024-03-29 23:44:00,SystemResetWarning,0824.3,5.00,000.00,021.0,020.3,000.0,029.5,022.8,27.9,0000.0,0001.48,0004.02,0001.20
2024-03-29 23:45:00,SystemResetWarning,0824.3,5.00,000.00,021.0,020.3,000.0,029.5,022.8,27.8,0000.0,0001.43,0003.94,0001.17
2024-03-29 23:46:00,SystemResetWarning,0824.3,4.99,000.00,021.0,020.3,000.0,029.5,022.8,28.0,0000.0,0001.42,0003.64,0001.16
2024-03-29 23:47:00,SystemResetWarning,0824.3,4.99,000.00,021.0,020.2,000.0,029.5,022.8,27.8,0000.0,0001.37,0003.30,0001.12
2024-03-29 23:48:00,SystemResetWarning,0824.3,5.01,000.00,021.0,020.2,000.0,029.5,022.8,27.8,0000.0,0001.34,0003.27,0001.08
2024-03-29 23:49:00,SystemResetWarning,0824.2,5.01,000.00,021.0,020.2,000.0,029.5,022.8,27.9,0000.0,0001.33,0003.37,0001.06
2024-03-29 23:50:00,SystemResetWarning,0824.3,4.99,000.00,021.0,020.2,000.0,029.5,022.8,28.0,0000.0,0001.33,0003.45,0001.04
2024-03-29 23:51:00,SystemResetWarning,0824.3,5.00,000.00,021.0,020.2,000.0,029.5,022.8,28.0,0000.0,0001.31,0003.35,0001.02
2024-03-29 23:52:00,SystemResetWarning,0824.4,5.00,000.00,021.0,020.2,000.0,029.5,022.8,28.0,0000.0,0001.28,0002.13,0001.00
2024-03-29 23:53:00,SystemResetWarning,0824.4,5.01,000.00,021.0,020.2,000.0,029.5,022.8,28.0,0000.0,0001.26,0001.98,0000.99
2024-03-29 23:54:00,SystemResetWarning,0824.4,5.00,000.00,021.0,020.2,000.0,029.5,022.8,28.0,0000.0,0001.24,0002.02,0000.96
2024-03-29 23:55:00,SystemResetWarning,0824.3,4.99,000.00,021.0,020.2,000.0,029.5,022.8,28.0,0000.0,0001.25,0002.08,0000.96
2024-03-29 23:56:00,SystemResetWarning,0824.4,5.01,000.00,021.0,020.2,000.0,029.5,022.8,27.9,0000.0,0001.28,0002.20,0000.95
2024-03-29 23:57:00,SystemResetWarning,0824.3,5.01,000.00,021.0,020.2,000.0,029.5,022.7,27.9,0000.0,0001.29,0002.24,0000.94
2024-03-29 23:58:00,SystemResetWarning,0824.3,5.00,000.00,020.9,020.2,000.0,029.5,022.7,27.9,0000.0,0001.29,0002.26,0000.95
2024-03-29 23:59:00,SystemResetWarning,0824.2,5.00,000.00,021.0,020.1,000.0,029.5,022.7,27.9,0000.0,0001.32,0002.43,0000.96
